(°C)
10°
11°
12°
13°
13°
(°C)
OSO
O
O
OSO
OSO
OSO
OSO
(km/h)
4-12
5-14
5-14
6-16
6-17
7-18
7-19
(mm)
0
0
0
0
0
0
0
(%)
0
0
0
0
1
8
23

Elevación del sol

/ 15.3°
sun-icon
UV 3
03:26
19:51
Gibosa menguante (199°)
22:13
03:52

METAR a 55.61°N 49.28°E (UWKD)

Hora Condiciones Temperatura/
Punto de condensación
Viento Visibilidad Tiempo Nubes Presión Cambiar Bruto
VFR 8°C / 6°C 260º 6kt >10km - Clouds and Visibility OK 999 No Significant change UWKD 170200Z 26003MPS CAVOK 08/06 Q0999 R29/CLRD70 NOSIG RMK QFE738/0984
VFR 7°C / 6°C 280º 4kt >10km - Clouds and Visibility OK 999 No Significant change UWKD 170130Z 28002MPS CAVOK 07/06 Q0999 R29/CLRD70 NOSIG RMK QFE738/0984
VFR 7°C / 5°C 300º 6kt >10km - Clouds and Visibility OK 999 No Significant change UWKD 170100Z 30003MPS CAVOK 07/05 Q0999 R29/70D NOSIG RMK QFE738/0984
VFR 6°C / 5°C 320º variable 290º to 360º 4kt >10km - Clouds and Visibility OK 999 No Significant change UWKD 170030Z 32002MPS 290V360 CAVOK 06/05 Q0999 R29/70D NOSIG RMK QFE738/0984
VFR 7°C / 5°C 270º 4kt >10km - Clouds and Visibility OK 999 No Significant change UWKD 170000Z 27002MPS CAVOK 07/05 Q0999 R29/CLRD70 NOSIG RMK QFE738/0984
VFR 7°C / 6°C 250º 6kt >10km - Clouds and Visibility OK 999 No Significant change UWKD 162330Z 25003MPS CAVOK 07/06 Q0999 R29/CLRD70 NOSIG RMK QFE738/0984
VFR 7°C / 5°C 250º 6kt >10km - Clouds and Visibility OK 999 No Significant change UWKD 162300Z 25003MPS CAVOK 07/05 Q0999 R29/70D NOSIG RMK QFE738/0984
VFR 7°C / 5°C 250º 6kt >10km - Clouds and Visibility OK 999 No Significant change UWKD 162230Z 25003MPS CAVOK 07/05 Q0999 R29/70D NOSIG RMK QFE738/0984
VFR 8°C / 5°C 260º 6kt >10km - Clouds and Visibility OK 999 No Significant change UWKD 162200Z 26003MPS CAVOK 08/05 Q0999 R29/CLRD70 NOSIG RMK QFE738/0984
VFR 8°C / 5°C 250º 6kt >10km - Clouds and Visibility OK 999 No Significant change UWKD 162130Z 25003MPS CAVOK 08/05 Q0999 R29/CLRD70 NOSIG RMK QFE738/0984
VFR 8°C / 6°C 270º 6kt >10km - Clouds and Visibility OK 999 No Significant change UWKD 162100Z 27003MPS CAVOK 08/06 Q0999 R29/CLRD70 NOSIG RMK QFE738/0984
VFR 9°C / 6°C 270º 6kt >10km - Clouds and Visibility OK 999 No Significant change UWKD 162030Z 27003MPS CAVOK 09/06 Q0999 R29/70D NOSIG RMK QFE738/0984
VFR 9°C / 6°C 260º 6kt >10km - Clouds and Visibility OK 999 No Significant change UWKD 162000Z 26003MPS CAVOK 09/06 Q0999 R29/70D NOSIG RMK QFE738/0984
VFR 9°C / 6°C 270º 8kt >10km - Clouds and Visibility OK 999 No Significant change UWKD 161930Z 27004MPS CAVOK 09/06 Q0999 R29/CLRD70 NOSIG RMK QFE738/0984
VFR 10°C / 6°C 270º 8kt >10km - Clouds and Visibility OK 999 No Significant change UWKD 161900Z 27004MPS CAVOK 10/06 Q0999 R29/CLRD70 NOSIG RMK QFE738/0984
VFR 10°C / 7°C 260º 8kt >10km - Clouds and Visibility OK 999 No Significant change UWKD 161830Z 26004MPS CAVOK 10/07 Q0999 R29/CLRD70 NOSIG RMK QFE738/0984
VFR 11°C / 7°C 270º 8kt >10km - Clouds and Visibility OK 999 No Significant change UWKD 161800Z 27004MPS CAVOK 11/07 Q0999 R29/CLRD70 NOSIG RMK QFE738/0984
VFR 11°C / 6°C 250º 6kt >10km - Clouds and Visibility OK 999 No Significant change UWKD 161730Z 25003MPS CAVOK 11/06 Q0999 R29/70D NOSIG RMK QFE738/0984
VFR 12°C / 6°C 260º 8kt >10km - Clouds and Visibility OK 999 No Significant change UWKD 161700Z 26004MPS CAVOK 12/06 Q0999 R29/70D NOSIG RMK QFE738/0984
VFR 12°C / 6°C 260º 8kt >10km - Clouds and Visibility OK 999 No Significant change UWKD 161630Z 26004MPS CAVOK 12/06 Q0999 R29/CLRD70 NOSIG RMK QFE738/0984
VFR 13°C / 6°C 260º 8kt >10km - Clouds and Visibility OK 999 No Significant change UWKD 161600Z 26004MPS CAVOK 13/06 Q0999 R29/70D NOSIG RMK QFE738/0984
VFR 14°C / 6°C 270º 12kt >10km - Scattered Clouds 5000ft 998 No Significant change UWKD 161500Z 27006MPS 9999 SCT050CB 14/06 Q0998 R29/70D NOSIG RMK QFE738/0984
VFR 15°C / 4°C 290º 16kt Gust 25kt >10km - Scattered Clouds 5000ft 998 No Significant change UWKD 161400Z 29008G13MPS 9999 SCT050CB 15/04 Q0998 R29/CLRD70 NOSIG RMK QFE738/0984
VFR 17°C / 4°C 260º 10kt >10km - Scattered Clouds 5000ft 998 No Significant change UWKD 161330Z 26005MPS 9999 SCT050CB 17/04 Q0998 R29/CLRD70 NOSIG RMK QFE737/0983

VFR

8°C / 6°C

[Más]
Viento 260º 6kt
Visibilidad >10km
Tiempo -
Nubes Clouds and Visibility OK
Presión 999
Cambiar No Significant change
Bruto UWKD 170200Z 26003MPS CAVOK 08/06 Q0999 R29/CLRD70 NOSIG RMK QFE738/0984

VFR

7°C / 6°C

[Más]
Viento 280º 4kt
Visibilidad >10km
Tiempo -
Nubes Clouds and Visibility OK
Presión 999
Cambiar No Significant change
Bruto UWKD 170130Z 28002MPS CAVOK 07/06 Q0999 R29/CLRD70 NOSIG RMK QFE738/0984

VFR

7°C / 5°C

[Más]
Viento 300º 6kt
Visibilidad >10km
Tiempo -
Nubes Clouds and Visibility OK
Presión 999
Cambiar No Significant change
Bruto UWKD 170100Z 30003MPS CAVOK 07/05 Q0999 R29/70D NOSIG RMK QFE738/0984

VFR

6°C / 5°C

[Más]
Viento 320º variable 290º to 360º 4kt
Visibilidad >10km
Tiempo -
Nubes Clouds and Visibility OK
Presión 999
Cambiar No Significant change
Bruto UWKD 170030Z 32002MPS 290V360 CAVOK 06/05 Q0999 R29/70D NOSIG RMK QFE738/0984

VFR

7°C / 5°C

[Más]
Viento 270º 4kt
Visibilidad >10km
Tiempo -
Nubes Clouds and Visibility OK
Presión 999
Cambiar No Significant change
Bruto UWKD 170000Z 27002MPS CAVOK 07/05 Q0999 R29/CLRD70 NOSIG RMK QFE738/0984

VFR

7°C / 6°C

[Más]
Viento 250º 6kt
Visibilidad >10km
Tiempo -
Nubes Clouds and Visibility OK
Presión 999
Cambiar No Significant change
Bruto UWKD 162330Z 25003MPS CAVOK 07/06 Q0999 R29/CLRD70 NOSIG RMK QFE738/0984

VFR

7°C / 5°C

[Más]
Viento 250º 6kt
Visibilidad >10km
Tiempo -
Nubes Clouds and Visibility OK
Presión 999
Cambiar No Significant change
Bruto UWKD 162300Z 25003MPS CAVOK 07/05 Q0999 R29/70D NOSIG RMK QFE738/0984

VFR

7°C / 5°C

[Más]
Viento 250º 6kt
Visibilidad >10km
Tiempo -
Nubes Clouds and Visibility OK
Presión 999
Cambiar No Significant change
Bruto UWKD 162230Z 25003MPS CAVOK 07/05 Q0999 R29/70D NOSIG RMK QFE738/0984

VFR

8°C / 5°C

[Más]
Viento 260º 6kt
Visibilidad >10km
Tiempo -
Nubes Clouds and Visibility OK
Presión 999
Cambiar No Significant change
Bruto UWKD 162200Z 26003MPS CAVOK 08/05 Q0999 R29/CLRD70 NOSIG RMK QFE738/0984

VFR

8°C / 5°C

[Más]
Viento 250º 6kt
Visibilidad >10km
Tiempo -
Nubes Clouds and Visibility OK
Presión 999
Cambiar No Significant change
Bruto UWKD 162130Z 25003MPS CAVOK 08/05 Q0999 R29/CLRD70 NOSIG RMK QFE738/0984

VFR

8°C / 6°C

[Más]
Viento 270º 6kt
Visibilidad >10km
Tiempo -
Nubes Clouds and Visibility OK
Presión 999
Cambiar No Significant change
Bruto UWKD 162100Z 27003MPS CAVOK 08/06 Q0999 R29/CLRD70 NOSIG RMK QFE738/0984

VFR

9°C / 6°C

[Más]
Viento 270º 6kt
Visibilidad >10km
Tiempo -
Nubes Clouds and Visibility OK
Presión 999
Cambiar No Significant change
Bruto UWKD 162030Z 27003MPS CAVOK 09/06 Q0999 R29/70D NOSIG RMK QFE738/0984

VFR

9°C / 6°C

[Más]
Viento 260º 6kt
Visibilidad >10km
Tiempo -
Nubes Clouds and Visibility OK
Presión 999
Cambiar No Significant change
Bruto UWKD 162000Z 26003MPS CAVOK 09/06 Q0999 R29/70D NOSIG RMK QFE738/0984

VFR

9°C / 6°C

[Más]
Viento 270º 8kt
Visibilidad >10km
Tiempo -
Nubes Clouds and Visibility OK
Presión 999
Cambiar No Significant change
Bruto UWKD 161930Z 27004MPS CAVOK 09/06 Q0999 R29/CLRD70 NOSIG RMK QFE738/0984

VFR

10°C / 6°C

[Más]
Viento 270º 8kt
Visibilidad >10km
Tiempo -
Nubes Clouds and Visibility OK
Presión 999
Cambiar No Significant change
Bruto UWKD 161900Z 27004MPS CAVOK 10/06 Q0999 R29/CLRD70 NOSIG RMK QFE738/0984

VFR

10°C / 7°C

[Más]
Viento 260º 8kt
Visibilidad >10km
Tiempo -
Nubes Clouds and Visibility OK
Presión 999
Cambiar No Significant change
Bruto UWKD 161830Z 26004MPS CAVOK 10/07 Q0999 R29/CLRD70 NOSIG RMK QFE738/0984

VFR

11°C / 7°C

[Más]
Viento 270º 8kt
Visibilidad >10km
Tiempo -
Nubes Clouds and Visibility OK
Presión 999
Cambiar No Significant change
Bruto UWKD 161800Z 27004MPS CAVOK 11/07 Q0999 R29/CLRD70 NOSIG RMK QFE738/0984

VFR

11°C / 6°C

[Más]
Viento 250º 6kt
Visibilidad >10km
Tiempo -
Nubes Clouds and Visibility OK
Presión 999
Cambiar No Significant change
Bruto UWKD 161730Z 25003MPS CAVOK 11/06 Q0999 R29/70D NOSIG RMK QFE738/0984

VFR

12°C / 6°C

[Más]
Viento 260º 8kt
Visibilidad >10km
Tiempo -
Nubes Clouds and Visibility OK
Presión 999
Cambiar No Significant change
Bruto UWKD 161700Z 26004MPS CAVOK 12/06 Q0999 R29/70D NOSIG RMK QFE738/0984

VFR

12°C / 6°C

[Más]
Viento 260º 8kt
Visibilidad >10km
Tiempo -
Nubes Clouds and Visibility OK
Presión 999
Cambiar No Significant change
Bruto UWKD 161630Z 26004MPS CAVOK 12/06 Q0999 R29/CLRD70 NOSIG RMK QFE738/0984

VFR

13°C / 6°C

[Más]
Viento 260º 8kt
Visibilidad >10km
Tiempo -
Nubes Clouds and Visibility OK
Presión 999
Cambiar No Significant change
Bruto UWKD 161600Z 26004MPS CAVOK 13/06 Q0999 R29/70D NOSIG RMK QFE738/0984

VFR

14°C / 6°C

[Más]
Viento 270º 12kt
Visibilidad >10km
Tiempo -
Nubes Scattered Clouds 5000ft
Presión 998
Cambiar No Significant change
Bruto UWKD 161500Z 27006MPS 9999 SCT050CB 14/06 Q0998 R29/70D NOSIG RMK QFE738/0984

VFR

15°C / 4°C

[Más]
Viento 290º 16kt Gust 25kt
Visibilidad >10km
Tiempo -
Nubes Scattered Clouds 5000ft
Presión 998
Cambiar No Significant change
Bruto UWKD 161400Z 29008G13MPS 9999 SCT050CB 15/04 Q0998 R29/CLRD70 NOSIG RMK QFE738/0984

VFR

17°C / 4°C

[Más]
Viento 260º 10kt
Visibilidad >10km
Tiempo -
Nubes Scattered Clouds 5000ft
Presión 998
Cambiar No Significant change
Bruto UWKD 161330Z 26005MPS 9999 SCT050CB 17/04 Q0998 R29/CLRD70 NOSIG RMK QFE737/0983

TAF a 55.61°N 49.28°E (UWKD)

From till


Maximum Temperature 16ºC on . Minimum Temperature 7ºC on .
From till Wind 250º 10kt. Visibility 10km or more. Broken Clouds 1600ft.
Becoming from till Wind 270º 12kt. Gust 23kt. Visibility 10km or more. Broken Clouds 1600ft.
Temporarly from till Visibility 6000m. Light Showers Rain . Broken Clouds 2000ft.
Temporarly from till Wind variable 29kt. Visibility 3100m. Light Thunderstorm Rain Squalls . Broken Clouds 2000ft.
Becoming from till Wind 250º 6kt. Visibility 10km or more. Broken Clouds 1600ft.

Bruto: TAF UWKD 170200Z 1703/1803 25005MPS 9999 BKN016 TX16/1712Z TN07/1801Z BECMG 1705/1706 27006G12MPS TEMPO 1706/1710 6000 -SHRA BKN020CB TEMPO 1710/1716 VRB15MPS 3100 -TSRA SQ BKN020CB BECMG 1717/1719 25003MPS

Radar y precipitación nowcast para 55.61°N 49.28°E

llovizna
Leve
Moderado
Fuerte
Muy fuerte
Granizo

El marcador de lugar se coloca en 55.61°N 49.28°E. Esta animación muestra lo radar de precipitaciones hasta la última hora, así como la 1h previsión. Las lloviznas o las nevadas ligeras pueden ser invisibles para el radar. La intensidad de la precipitación está codificada por colores, que van del azul claro al naranja.

Imágenes actuales de satélite y lluvia para 55.61°N 49.28°E

El marcador de lugar se coloca en 55.61°N 49.28°E. [Más]

La imagen de satélite en tiempo real se aprovecha de la combinación de bandas de la luz visible y de la luz infrarrojo. Como se puede detectar cambios de temperaturas atreves de la banda infrarrojo, la imagen no está escura de noche. No obstante, la niebla y las nubes bajas son apenas visibles en las imágenes infrarrojo como las diferencias de temperaturas entre el suelo y la niebla son muy pequeñas. Por eso son casi invisibles durante la noche. Las imágenes de satélite del Meteosat (Europa) son actualizados en tiempo real cada 5 minutos. Las imágenes del GOES-16/GOES-17 (América del Norte y América del Sur) y Himawari (Asia) son actualizados cada 10 minutos.

Copyright 2022 EUMETSAT / meteoblue. / Copyright 2022 meteoblue

Volver al principio